STARLINK BG

Last updated on Jan. 16, 2020, 12:02 a.m. UTC

1 44968U 20001BG  20015.50001157 -.00012224  00000-0 -53290-4 0  9997
2 44968  53.0005 355.1791 0001037 245.0713  65.5830 15.82819379  1337

Satellite is not in orbit.